Location: Borbetomagus
(49.6328°N, 8.3592°E)
Time: 06:06:24
(UTC+00:00)

SeaSat 1 - Pass Details

Date: 19 May 2025
Orbit: 738 x 740 km, 108.0° (Epoch: 22 June)

Event Time Altitude Azimuth Distance (km) Brightness Sun altitude
Exits shadow 19:57:10 - 105° (ESE) 2,666 4.8 -6.8°
Reaches altitude 10° 19:58:22 10° 99° (E) 2,250 4.4 -7.0°
Maximum altitude 20:02:21 26° 44° (NE) 1,440 3.9 -7.5°
Drops below altitude 10° 20:06:22 10° 349° (N) 2,261 5.9 -7.9°
Sets 20:08:56 0° 337° (NNW) 3,188 7.2 -8.2°
